Regional Weather Roundup
Issued by NWS

Home | Current Version | Previous Version | Graphics & Text | Print | Product List | Glossary On
Versions: 1 2 3 4 5 6 7 8 9 10 11 12 13 14 15 16 17 18 19 20 21 22 23 24 25 26 27 28 29 30 31 32 33 34 35 36 37 38 39 40 41 42 43 44 45 46 47 48 49 50
000
ASUS43 KDTX 160710
RWRMI
MICHIGAN HOURLY REGIONAL WEATHER ROUNDUP
NATIONAL WEATHER SERVICE DETROIT/PONTIAC MI
300 AM EDT WED APR 16 2014

NOTE: "FAIR" INDICATES FEW OR NO CLOUDS BELOW 12,000 FEET WITH NO
SIGNIFICANT WEATHER AND/OR OBSTRUCTION TO VISIBILITY.

MIZ047>049-052>055-059>063-066>070-074>076-081>083-160800-
SOUTHEAST LOWER MICHIGAN

CITY           SKY/WX    TMP DP  RH WIND       PRES   REMARKS
ADRIAN         CLEAR     22  14  71 CALM      30.26S
ALMA           CLEAR     25  16  69 SW5       30.26R WCI  19
ANN ARBOR      CLEAR     20  16  84 CALM      30.25S
BAD AXE        CLEAR     20  18  91 CALM      30.24S
CARO           CLEAR     20  18  90 CALM      30.24S
DETROIT CITY   CLEAR     26  15  63 CALM      30.27R
DETROIT        CLEAR     26  15  63 CALM      30.27R
FLINT          CLEAR     21  15  78 CALM      30.25R
GROSSE ILE     CLEAR     25  19  80 CALM      30.26R
HILLSDALE      CLEAR     22  11  64 CALM      30.24R
HOWELL         CLEAR     21  14  73 SW3       30.24S

CITY           SKY/WX    TMP DP  RH WIND       PRES   REMARKS
JACKSON        CLEAR     20  13  74 CALM      30.25R
LAMBERTVILLE   CLEAR     27  18  69 CALM      30.27S
LANSING        CLEAR     23  15  71 CALM      30.26R
LAPEER         FAIR      20  17  88 CALM      30.24S
MASON          CLEAR     22  17  81 CALM      30.25S
MONROE         CLEAR     25  19  80 CALM      30.25S
MT. CLEMENS    CLEAR     22  13  68 SW2       30.25R
PONTIAC        CLEAR     21  13  71 CALM      30.23R
PORT HOPE        N/A     23  17  78 SW5       30.23R WCI  17
PORT HURON     CLEAR     19  18  93 CALM      30.26S
TRI CITIES     CLEAR     26  15  63 W5        30.25S WCI  20
TROY           CLEAR     25  15  68 CALM      30.27R
SAGINAW HB     CLEAR     28  16  59 W3        30.25S
YPSILANTI      CLEAR     25  14  63 CALM      30.27R
$$
MIZ043>046-050>051-056>058-064>065-071>073-077>080-160800-
SOUTHWEST LOWER MICHIGAN

CITY           SKY/WX    TMP DP  RH WIND       PRES   REMARKS
BATTLE CREEK   CLEAR     23  15  71 CALM      30.25R
BENTON HARBOR  CLEAR     22  16  78 SE3       30.26R
BIG RAPIDS     CLEAR     22  17  81 CALM      30.22S
COLDWATER      CLEAR     21  18  86 CALM      30.25S
FREMONT        FAIR      23  18  81 CALM      30.24S
HOLLAND        CLEAR     26  17  68 SE3       30.26R
GRAND RAPIDS   CLEAR     23  16  74 S5        30.26R WCI  17
IONIA          FAIR      24  18  77 W3        30.24S
KALAMAZOO      CLEAR     24  16  71 CALM      30.25R
LUDINGTON      MOCLDY    29  23  77 S6        30.24S WCI  23
MARSHALL       CLEAR     20  13  73 CALM      30.25R
MOUNT PLEASANT CLEAR     25  17  73 CALM      30.24S
MUSKEGON       CLEAR     24  16  71 SE3       30.26R
SOUTH HAVEN    CLEAR     25  15  68 CALM      30.26R
$$
MIZ016>042-160800-
NORTHERN LOWER MICHIGAN

CITY           SKY/WX    TMP DP  RH WIND       PRES   REMARKS
ALPENA         CLOUDY    21  18  88 W3        30.24R
BEAVER ISLAND  CLEAR     11   8  89 CALM      30.23S
BELLAIRE       CLOUDY    26  22  85 CALM      30.23S
CADILLAC       CLEAR     19  15  85 SW5       30.19R WCI  12
CHARLEVOIX     CLEAR     17  16  95 CALM      30.26S
FRANKFORT      PTCLDY    27  16  64 CALM      30.22S
GAYLORD        CLOUDY    19  17  92 CALM      30.18S
GRAYLING       PTCLDY    17  14  88 CALM      30.21R
HARBOR SPRINGS CLEAR     15  13  91 CALM      30.23S
HOUGHTON LAKE  PTCLDY    22  15  75 W3        30.20S
MANISTEE       PTCLDY    25  18  74 CALM      30.24S
OSCODA         MOCLDY    15  11  83 SW3       30.24R
PELLSTON       CLEAR      7   3  84 CALM      30.24R FOG
ROGERS CITY    PTCLDY    19  17  92 W5        30.25R WCI  13
TRAVERSE CITY  PTCLDY    22  19  89 CALM      30.22R
$$
MIZ007>008-015-160800-
EASTERN UPPER MICHIGAN

CITY           SKY/WX    TMP DP  RH WIND       PRES   REMARKS
KINROSS        CLEAR      9   9 100 CALM      30.22R
MACKINAC ISLAN CLEAR     14  10  86 CALM      30.23R
NEWBERRY       CLEAR      2   0  90 SW5       30.21R WCI  -7
S. S. MARIE    CLEAR     12   7  80 SW5       30.22R WCI   4
MUNISING         N/A     11   5  77 S8        30.21S WCI  -1
$$
MIZ004>006-011>014-085-160800-
CENTRAL UPPER MICHIGAN

CITY           SKY/WX    TMP DP  RH WIND       PRES   REMARKS
MANISTIQUE     FAIR       7   4  88 CALM      30.22S
ESCANABA       CLEAR     12   9  85 CALM      30.21S
MENOMINEE      CLEAR     21  19  93 CALM      30.20S
SAWYER-GWINN   CLEAR      1  -3  83 CALM      30.17S
$$
MIZ001>003-009>011-084-160800-
WESTERN UPPER MICHIGAN

CITY           SKY/WX    TMP DP  RH WIND       PRES   REMARKS
IRON MOUNTAIN  PTCLDY    10   6  84 CALM      30.16S
HOUGHTON       CLEAR     11  -3  53 CALM      30.14R
COPPER HARBOR    N/A     19   3  49 W6        30.16S WCI  11
IRONWOOD       CLEAR     14   7  73 CALM      30.10S
$$

ABBREVIATIONS USED IN REMARKS
   TC - TEMPERATURE IN CELSIUS
  WCI - WIND CHILL INDEX
   HX - HEAT INDEX
  VSB - VISIBILITY




USA.gov is the U.S. government's official web portal to all federal, state and local government web resources and services.